Preview of NWS' New Version of Forecast
This preview is not operational and should not be used for support decisions.

Regional Weather Roundup (RWR)

Issued by National Weather Service (NWS)

                            
000
ASUS46 KPQR 250810
RWROR 

OREGON REGIONAL WEATHER ROUNDUP
NATIONAL WEATHER SERVICE PORTLAND OR
100 AM PDT TUE JUN 25 2019

NOTE: "FAIR" INDICATES FEW OR NO CLOUDS BELOW 12,000 FEET WITH
NO SIGNIFICANT WEATHER AND/OR OBSTRUCTIONS TO VISIBILITY.

ORZ001>013-250900-
NORTHWEST OREGON

  
CITY           SKY/WX    TMP DP  RH WIND       PRES   REMARKS
ASTORIA        MOCLDY    51  48  89 CALM      29.92S                  
TILLAMOOK      CLOUDY    52  48  87 CALM      29.95F                  
NEWPORT        CLOUDY    46  45  93 CALM      29.98S                  
PORTLAND       MOCLDY    58  48  69 W5        29.90F                  
VANCOUVER WA   PTCLDY    55  48  77 CALM      29.89F                  
SCAPPOOSE      CLEAR     50  46  86 CALM      29.89F                  
HILLSBORO      PTCLDY    53  47  79 CALM      29.90F                  
AURORA         MOCLDY    58  47  66 CALM      29.91S                  
MCMINNVILLE    MOCLDY    54  48  80 W5        29.90S                  
SALEM          MOCLDY    58  46  64 NW5       29.89S                  
CORVALLIS      MOCLDY    56  47  71 NW12      29.91F                  
EUGENE         PTCLDY    56  46  69 S6        29.92S                  
$$

ORZ021-028-250900-
SOUTHWEST OREGON

  
CITY           SKY/WX    TMP DP  RH WIND       PRES   REMARKS
NORTH BEND     MOCLDY    52  50  93 SE5       29.98F                  
BROOKINGS      MOCLDY    50  47  89 CALM      29.97S                  
ROSEBURG       PTCLDY    57  40  52 CALM      29.93S                  
SEXTON SUMMIT  MOCLDY    50  32  50 NW8       29.96F                  
GRANTS PASS    FAIR      59  37  44 CALM      29.94F                  
MEDFORD        MOCLDY    64  42  44 CALM      29.90S                  
$$

ORZ014>016-041-250900-
COLUMBIA GORGE

  
CITY           SKY/WX    TMP DP  RH WIND       PRES   REMARKS
TROUTDALE      MOCLDY    55  48  77 SE7       29.89F                  
HOOD RIVER     MOCLDY    52  43  71 CALM      29.88F                  
THE DALLES     PTCLDY    60  41  49 NW7       29.86F                  
$$

ORZ029>031-041-044-049-050-061>064-502-503-505>511-250900-
EASTERN OREGON

  
CITY           SKY/WX    TMP DP  RH WIND       PRES   REMARKS
MADRAS         CLOUDY    52  34  50 N3        29.94S                  
REDMOND        CLOUDY    54  28  36 NE3       29.92F                  
BEND           CLOUDY    52  32  46 CALM      29.93S                  
PRINEVILLE     MOCLDY    48  30  49 CALM      29.92S                  
KLAMATH FALLS  MOCLDY    51  41  68 W5        29.95F                  
LAKEVIEW       CLEAR     48  35  60 NW3       29.96F                  
HERMISTON      MOCLDY    61  35  37 SW8       29.83S                  
PENDLETON      MOCLDY    53  35  50 E6        29.85S                  
JOHN DAY       MOCLDY    55  34  44 SW5       29.92S                  
MEACHAM        PTCLDY    43  37  79 CALM      29.92S                  
LA GRANDE      CLOUDY    50  38  63 CALM      29.89S                  
BAKER CITY     CLOUDY    52  43  71 CALM      29.90S                  
BURNS          CLOUDY    58  34  40 NW8       29.91S                  
ROME             N/A     53  36  52 S9        29.86S                  
ONTARIO        CLOUDY    61  44  53 W3        29.82S                  
$$